Location: *
(49.8044°N, 4.0558°E)
Time: 13:45:30
(UTC+00:00)

Cosmos 1766 Rocket - Pass Details

Date: 09 April 2020
Orbit: 604 x 634 km, 82.5° (Epoch: 02 June)

Event Time Altitude Azimuth Distance (km) Brightness Sun altitude
Rises 20:45:53 0° 353° (N) 2,942 7.8 -20.3°
Reaches altitude 10° 20:48:13 10° 359° (N) 2,027 6.8 -20.6°
Maximum altitude 20:52:36 50° 76° (ENE) 806 3.9 -21.1°
Enters shadow 20:52:53 49° 90° (E) 815 3.8 -21.1°
